NKS526B KLAX-KSAN

Flight info

Callsign NKS526B
Flight time 0h 26m
Altitude 13000
Route LAXX1 MZB
Aircraft A21N/M-SDE3FGHIRWY/LB1

Departure

Time 2026-04-23 04:10
Airport Los Angeles International Airport (KLAX)

Arrival

Time 2026-04-23 04:36
Airport San Diego International Airport (KSAN)
Time Latitude Longitude Altitude Speed Heading
2026-04-23 03:33 33.94734 -118.40448 122 ft 0 kts 163°
2026-04-23 04:01 33.94738 -118.40449 121 ft 0 kts 196°
2026-04-23 04:01 33.94750 -118.40443 121 ft 2 kts 187°
2026-04-23 04:01 33.94765 -118.40445 121 ft 2 kts 173°
2026-04-23 04:02 33.94779 -118.40446 121 ft 2 kts 180°
2026-04-23 04:02 33.94790 -118.40446 121 ft 0 kts 177°
2026-04-23 04:02 33.94796 -118.40447 121 ft 0 kts 129°
2026-04-23 04:02 33.94799 -118.40453 121 ft 0 kts 84°
2026-04-23 04:03 33.94797 -118.40460 121 ft 1 kts 82°
2026-04-23 04:03 33.94797 -118.40461 121 ft 0 kts 82°
2026-04-23 04:05 33.94797 -118.40460 121 ft 0 kts 82°
2026-04-23 04:06 33.94801 -118.40434 121 ft 6 kts 81°
2026-04-23 04:06 33.94809 -118.40358 120 ft 10 kts 82°
2026-04-23 04:06 33.94856 -118.40299 119 ft 10 kts 15°
2026-04-23 04:06 33.94902 -118.40231 119 ft 11 kts 75°
2026-04-23 04:07 33.94913 -118.40133 119 ft 12 kts 84°
2026-04-23 04:07 33.94924 -118.40018 116 ft 15 kts 84°
2026-04-23 04:07 33.94944 -118.39943 116 ft 3 kts 40°
2026-04-23 04:07 33.94950 -118.39937 116 ft 0 kts 38°
2026-04-23 04:08 33.94953 -118.39934 116 ft 2 kts 38°
2026-04-23 04:08 33.94976 -118.39922 115 ft 5 kts
2026-04-23 04:08 33.95023 -118.39932 115 ft 8 kts 324°
2026-04-23 04:09 33.95038 -118.39996 116 ft 7 kts 268°
2026-04-23 04:09 33.95034 -118.40061 117 ft 7 kts 259°
2026-04-23 04:09 33.95018 -118.40192 119 ft 43 kts 263°
2026-04-23 04:09 33.94951 -118.40839 126 ft 110 kts 264°
2026-04-23 04:10 33.94831 -118.41992 130 ft 164 kts 263°
2026-04-23 04:10 33.94677 -118.43394 588 ft 172 kts 263°
2026-04-23 04:10 33.94570 -118.44334 1080 ft 170 kts 263°
2026-04-23 04:10 33.94354 -118.46184 2033 ft 170 kts 263°
2026-04-23 04:11 33.94148 -118.47637 2486 ft 186 kts 255°
2026-04-23 04:11 33.93486 -118.49059 2914 ft 203 kts 236°
2026-04-23 04:11 33.92574 -118.50461 3241 ft 219 kts 232°
2026-04-23 04:11 33.91339 -118.51683 3451 ft 244 kts 204°
2026-04-23 04:12 33.89631 -118.52103 3803 ft 262 kts 185°
2026-04-23 04:12 33.87763 -118.51976 4259 ft 277 kts 163°
2026-04-23 04:12 33.86623 -118.51251 4682 ft 281 kts 139°
2026-04-23 04:12 33.85387 -118.48601 5665 ft 280 kts 100°
2026-04-23 04:13 33.85089 -118.46286 6360 ft 284 kts 96°
2026-04-23 04:13 33.84826 -118.43937 7028 ft 290 kts 96°
2026-04-23 04:13 33.84511 -118.41509 7718 ft 296 kts 98°
2026-04-23 04:13 33.84146 -118.39043 8374 ft 303 kts 99°
2026-04-23 04:14 33.83744 -118.36544 9034 ft 309 kts 99°
2026-04-23 04:14 33.83320 -118.34018 9667 ft 315 kts 100°
2026-04-23 04:14 33.82872 -118.31402 10310 ft 321 kts 100°
2026-04-23 04:14 33.82413 -118.28749 10779 ft 334 kts 100°
2026-04-23 04:15 33.81927 -118.25959 11088 ft 351 kts 101°
2026-04-23 04:15 33.81413 -118.22997 11386 ft 368 kts 101°
2026-04-23 04:15 33.80318 -118.16750 11936 ft 400 kts 101°
2026-04-23 04:16 33.79728 -118.13388 12195 ft 415 kts 101°
2026-04-23 04:16 33.79124 -118.09950 12495 ft 427 kts 102°
2026-04-23 04:16 33.78205 -118.06526 12942 ft 432 kts 114°
2026-04-23 04:16 33.76670 -118.03450 13165 ft 432 kts 129°
2026-04-23 04:17 33.74638 -118.00807 13180 ft 430 kts 138°
2026-04-23 04:17 33.72485 -117.98332 13178 ft 429 kts 139°
2026-04-23 04:17 33.70324 -117.95879 13172 ft 428 kts 139°
2026-04-23 04:17 33.68165 -117.93402 13176 ft 429 kts 139°
2026-04-23 04:18 33.66026 -117.90919 13179 ft 429 kts 138°
2026-04-23 04:18 33.63870 -117.88392 13179 ft 429 kts 138°
2026-04-23 04:18 33.61758 -117.85912 13184 ft 430 kts 138°
2026-04-23 04:18 33.59629 -117.83405 13186 ft 429 kts 138°
2026-04-23 04:19 33.57487 -117.80882 13193 ft 429 kts 138°
2026-04-23 04:19 33.55356 -117.78372 13188 ft 430 kts 138°
2026-04-23 04:19 33.53235 -117.75877 13186 ft 429 kts 138°
2026-04-23 04:19 33.51078 -117.73343 13193 ft 429 kts 138°
2026-04-23 04:20 33.48954 -117.70853 13192 ft 429 kts 138°
2026-04-23 04:20 33.46831 -117.68364 13189 ft 429 kts 138°
2026-04-23 04:20 33.44681 -117.65847 13200 ft 429 kts 138°
2026-04-23 04:20 33.42664 -117.63488 13209 ft 429 kts 138°
2026-04-23 04:21 33.40548 -117.61012 13205 ft 429 kts 138°
2026-04-23 04:21 33.38398 -117.58499 13221 ft 429 kts 138°
2026-04-23 04:21 33.36205 -117.56066 13173 ft 426 kts 144°
2026-04-23 04:21 33.33702 -117.54122 13195 ft 423 kts 153°
2026-04-23 04:22 33.31148 -117.52422 13179 ft 423 kts 154°
2026-04-23 04:22 33.28568 -117.50715 13180 ft 423 kts 154°
2026-04-23 04:22 33.26008 -117.48973 13184 ft 422 kts 153°
2026-04-23 04:22 33.23494 -117.47220 13100 ft 414 kts 153°
2026-04-23 04:23 33.21033 -117.45479 12738 ft 406 kts 152°
2026-04-23 04:23 33.18615 -117.43754 12338 ft 399 kts 152°
2026-04-23 04:23 33.16268 -117.42078 11991 ft 391 kts 152°
2026-04-23 04:23 33.13950 -117.40421 11650 ft 383 kts 152°
2026-04-23 04:24 33.11712 -117.38819 11324 ft 375 kts 152°
2026-04-23 04:24 33.09474 -117.37221 10996 ft 368 kts 152°
2026-04-23 04:24 33.07306 -117.35674 10671 ft 361 kts 152°
2026-04-23 04:24 33.05150 -117.34141 10296 ft 355 kts 154°
2026-04-23 04:25 33.02952 -117.32861 9930 ft 347 kts 161°
2026-04-23 04:25 33.00719 -117.31875 9583 ft 341 kts 164°
2026-04-23 04:25 32.98510 -117.30949 9270 ft 334 kts 161°
2026-04-23 04:25 32.96557 -117.29497 9072 ft 329 kts 139°
2026-04-23 04:26 32.95010 -117.27555 8944 ft 318 kts 133°
2026-04-23 04:26 32.93599 -117.25616 8818 ft 311 kts 133°
2026-04-23 04:26 32.92146 -117.23681 8704 ft 310 kts 134°
2026-04-23 04:26 32.90676 -117.21815 8311 ft 312 kts 135°
2026-04-23 04:27 32.89164 -117.19961 7894 ft 311 kts 136°
2026-04-23 04:27 32.87640 -117.18128 7518 ft 309 kts 136°
2026-04-23 04:27 32.86129 -117.16322 7163 ft 305 kts 136°
2026-04-23 04:28 32.83174 -117.12804 6478 ft 299 kts 136°
2026-04-23 04:28 32.81695 -117.11045 6122 ft 296 kts 135°
2026-04-23 04:28 32.80270 -117.09351 5947 ft 286 kts 135°
2026-04-23 04:28 32.78904 -117.07727 5926 ft 269 kts 135°
2026-04-23 04:29 32.77782 -117.06047 5929 ft 252 kts 116°
2026-04-23 04:29 32.77193 -117.04160 5978 ft 237 kts 104°
2026-04-23 04:29 32.76790 -117.02347 6034 ft 215 kts 102°
2026-04-23 04:29 32.76437 -117.00713 5876 ft 197 kts 103°
2026-04-23 04:30 32.76058 -116.99185 5516 ft 189 kts 109°
2026-04-23 04:30 32.75457 -116.97843 5148 ft 181 kts 129°
2026-04-23 04:30 32.74493 -116.96939 4745 ft 172 kts 156°
2026-04-23 04:30 32.73363 -116.96650 4356 ft 162 kts 184°
2026-04-23 04:31 32.72302 -116.96860 4002 ft 152 kts 198°
2026-04-23 04:31 32.71286 -116.97195 3733 ft 151 kts 199°
2026-04-23 04:31 32.70293 -116.97573 3507 ft 150 kts 208°
2026-04-23 04:31 32.69486 -116.98330 3304 ft 144 kts 236°
2026-04-23 04:32 32.69051 -116.99370 3246 ft 141 kts 260°
2026-04-23 04:32 32.68954 -117.00523 3157 ft 139 kts 275°
2026-04-23 04:32 32.69093 -117.01645 3063 ft 137 kts 288°
2026-04-23 04:32 32.69385 -117.02740 2963 ft 138 kts 291°
2026-04-23 04:33 32.69686 -117.03812 2833 ft 138 kts 291°
2026-04-23 04:33 32.69973 -117.04902 2598 ft 137 kts 289°
2026-04-23 04:33 32.70240 -117.05985 2388 ft 137 kts 289°
2026-04-23 04:33 32.70501 -117.07071 2175 ft 137 kts 288°
2026-04-23 04:34 32.70758 -117.08155 1969 ft 136 kts 288°
2026-04-23 04:34 32.71012 -117.09222 1756 ft 135 kts 288°
2026-04-23 04:34 32.71269 -117.10296 1549 ft 135 kts 288°
2026-04-23 04:34 32.71442 -117.11015 1409 ft 136 kts 288°
2026-04-23 04:35 32.71790 -117.12465 1112 ft 135 kts 288°
2026-04-23 04:35 32.72040 -117.13501 928 ft 131 kts 288°
2026-04-23 04:35 32.72294 -117.14554 725 ft 136 kts 287°
2026-04-23 04:35 32.72561 -117.15637 495 ft 135 kts 288°
2026-04-23 04:36 32.72809 -117.16686 298 ft 131 kts 285°
2026-04-23 04:36 32.73055 -117.17724 83 ft 130 kts 287°
2026-04-23 04:36 32.73286 -117.18673 22 ft 95 kts 285°
2026-04-23 04:36 32.73392 -117.19114 23 ft 18 kts 286°